Tracking 30105 objects as of 25-Jan-2025
HD Live streaming from Space Station
objects crossing your sky now

STARLINK-2605

Track STARLINK-2605 now!
10-day predictions
STARLINK-2605 is classified as:


NORAD ID: 48392
Int'l Code: 2021-038AR
Perigee: 553.5 km
Apogee: 555.3 km
Inclination: 53.1 °
Period: 95.6 minutes
Semi major axis: 6925 km
RCS: Unknown
Launch date: May 4, 2021
Source: United States (US)
Launch site: AIR FORCE EASTERN TEST RANGE (AFETR)
Your satellite tracking list
Your tracking list is empty




NASA's NSSDC Master Catalog

Two Line Element Set (TLE):
1 48392U 21038AR  25024.27681660  .00003336  00000-0  24285-3 0  9998
2 48392  53.0582  19.5459 0001290  90.1859 269.9278 15.06386779206180
Source of the keplerian elements: AFSPC